Weather History for KMGW - December, 2008

Change the Weather History Date:

Thursday, December 11, 2008

  Actual Average Record
Temperature  
Mean Temperature 35 °F 36 °F  
Max Temperature 36 °F 43 °F 68 °F (1979)
Min Temperature 33 °F 28 °F 1 °F (1958)
Degree Days  
Heating Degree Days 30 29  
Month to date heating degree days 338 304  
Since 1 July heating degree days 1442 1352  
Cooling Degree Days 0 0  
Month to date cooling degree days 0 0  
Year to date cooling degree days 738 814  
Moisture  
Dew Point 33 °F    
Average Humidity 96    
Maximum Humidity 100    
Minimum Humidity 92    
Precipitation  
Precipitation 0.95 in 0.10 in - ()
Month to date precipitation 2.14 1.12  
Year to date precipitation 42.78 40.04  
Snow  
Snow 0.00 in - - ()
Month to date snowfall 0.0  
Snow Depth 0.00 in    
Sea Level Pressure  
Sea Level Pressure 29.89 in    
Wind  
Wind Speed 7 mph (North)    
Max Wind Speed 14 mph    
Max Gust Speed 21 mph    
Visibility 5 miles    
Events Rain    
T = Trace of Precipitation, MM = Missing Value Source: NWS Daily Summary

Daily Weather History Graph

Daily Weather History Graph

Search for Another Location

Airport or City:

Trip Planner

Search our weather history database for the weather conditions in past years. The results will help you decide how hot, cold, wet, or windy it might be!

Date:

Astronomy

Dec. 11, 2008 Rise Set
Actual Time 7:30 AM EST 4:55 PM EST
Civil Twilight 7:00 AM EST 5:25 PM EST
Nautical Twilight 6:26 AM EST 5:59 PM EST
Astronomical Twilight 5:53 AM EST 6:32 PM EST
Moon 3:44 PM EST (12/11) 6:25 AM EST (12/11)
Length of Visible Light 10h 25m
Length of Day
9h 24m
Waxing Gibbous, 98% of the Moon is Illuminated
Dec 11
Waxing Gibbous
Dec 12
Full
Dec 19
Last Quarter
Dec 27
New
Jan 4
First Quarter

Hourly Weather History & Observations

Time (EST) Temp. Windchill Dew Point Humidity Pressure Visibility Wind Dir Wind Speed Gust Speed Precip Events Conditions
12:11 AM 33.8 °F 27.7 °F 33.8 °F 100% 30.04 in 5.0 mi North 6.9 mph - N/A   Overcast
12:41 AM 33.8 °F 27.0 °F 33.8 °F 100% 30.03 in 4.0 mi North 8.1 mph - N/A   Overcast
12:53 AM 34.0 °F 26.6 °F 33.1 °F 96% 30.05 in 5.0 mi North 9.2 mph - N/A   Overcast
1:53 AM 33.1 °F 27.7 °F 32.0 °F 96% 30.04 in 5.0 mi North 5.8 mph - N/A   Overcast
2:53 AM 33.1 °F 27.7 °F 33.1 °F 100% 30.04 in 7.0 mi North 5.8 mph - N/A   Overcast
3:53 AM 33.1 °F 27.7 °F 32.0 °F 96% 30.01 in 3.0 mi Variable 5.8 mph - 0.01 in Rain Light Rain
4:53 AM 33.1 °F 27.7 °F 33.1 °F 100% 29.99 in 4.0 mi North 5.8 mph - 0.01 in   Overcast
5:53 AM 33.1 °F 27.7 °F 32.0 °F 96% 29.98 in 4.0 mi NNE 5.8 mph - 0.01 in   Overcast
6:53 AM 33.1 °F 27.7 °F 32.0 °F 96% 29.99 in 4.0 mi North 5.8 mph - 0.03 in Rain Light Rain
7:53 AM 33.1 °F 27.7 °F 33.1 °F 100% 29.99 in 6.0 mi North 5.8 mph - 0.02 in   Overcast
8:16 AM 33.8 °F - 33.8 °F 100% 29.98 in 2.5 mi Calm Calm - 0.02 in Rain Rain
8:53 AM 34.0 °F 29.8 °F 33.1 °F 96% 29.99 in 3.0 mi North 4.6 mph - 0.07 in Rain Light Rain
9:53 AM 34.0 °F 27.2 °F 33.1 °F 96% 29.99 in 5.0 mi North 8.1 mph - 0.03 in Rain Light Rain
10:33 AM 33.8 °F 27.7 °F 33.8 °F 100% 29.95 in 2.5 mi North 6.9 mph - 0.02 in Rain Light Rain
10:48 AM 33.8 °F 27.7 °F 33.8 °F 100% 29.95 in 3.0 mi North 6.9 mph - 0.03 in Rain Light Rain
10:53 AM 34.0 °F 28.0 °F 33.1 °F 96% 29.99 in 4.0 mi North 6.9 mph - 0.03 in Rain Light Rain
11:09 AM 33.8 °F 28.6 °F 33.8 °F 100% 29.95 in 2.5 mi North 5.8 mph - 0.01 in Rain Light Rain
11:21 AM 33.8 °F 28.6 °F 33.8 °F 100% 29.93 in 3.0 mi North 5.8 mph - 0.01 in   Overcast
11:53 AM 34.0 °F 28.0 °F 33.1 °F 96% 29.94 in 3.0 mi North 6.9 mph - 0.02 in   Overcast
12:53 PM 34.0 °F 28.8 °F 33.1 °F 96% 29.89 in 3.0 mi North 5.8 mph - 0.03 in Rain Light Rain
1:53 PM 35.1 °F 28.6 °F 34.0 °F 96% 29.86 in 3.0 mi North 8.1 mph - 0.08 in Rain Rain
2:53 PM 35.1 °F 28.6 °F 34.0 °F 96% 29.82 in 3.0 mi North 8.1 mph - 0.12 in Rain Rain
3:53 PM 35.1 °F 30.1 °F 34.0 °F 96% 29.81 in 4.0 mi North 5.8 mph - 0.09 in Rain Rain
4:53 PM 35.1 °F 28.6 °F 34.0 °F 96% 29.82 in 6.0 mi North 8.1 mph - 0.08 in Rain Rain
5:53 PM 35.1 °F 27.4 °F 34.0 °F 96% 29.79 in 8.0 mi North 10.4 mph - 0.07 in Rain Light Rain
6:53 PM 34.0 °F 25.0 °F 33.1 °F 96% 29.75 in 6.0 mi North 12.7 mph 19.6 mph 0.05 in Rain Rain
7:53 PM 35.1 °F 26.9 °F 33.1 °F 92% 29.72 in 10.0 mi North 11.5 mph - 0.03 in   Overcast
8:53 PM 35.1 °F 27.4 °F 34.0 °F 96% 29.70 in 10.0 mi NNE 10.4 mph - 0.07 in   Overcast
9:26 PM 35.6 °F 30.7 °F 33.8 °F 93% 29.66 in 10.0 mi NNE 5.8 mph - 0.00 in   Overcast
9:53 PM 35.1 °F 29.3 °F 34.0 °F 96% 29.66 in 9.0 mi North 6.9 mph - 0.00 in   Overcast
10:53 PM 35.1 °F 28.6 °F 34.0 °F 96% 29.64 in 5.0 mi North 8.1 mph - 0.02 in Rain Light Rain
11:53 PM 34.0 °F - 33.1 °F 96% 29.65 in 3.0 mi Calm Calm - 0.07 in Rain Rain